Theta_e
311 311 311 312 312 311 310 309 308 307 307 304 301 302 298 296 294 300 309 313 308 305 295 302 301 300 300 303 300 305 303 304 306 303 304 305 305 303 302 302 300 299 301 300 299 298 299 299 297 299 298 299 301 301 304 302 303 301 303 302 307 330 294 295 294 292 296 300 301 305 302 301 301 300 297 296 296 294 294 290 290 290 290 289 288 288 287
311 311 311 311 311 310 310 309 309 308 308 304 303 297 296 296 296 303 309 314 303 300 296 295 294 297 302 301 299 301 301 302 299 300 300 303 303 301 301 304 303 303 301 299 300 300 297 300 301 302 302 304 305 307 307 306 306 303 304 301 306 299 295 294 289 289 289 292 295 298 299 302 298 298 300 297 298 297 295 294 293 292 290 291 287 285 285
310 311 311 311 310 310 309 309 309 309 309 307 300 298 298 297 300 298 303 315 304 299 293 294 292 297 297 296 297 299 299 300 301 300 300 307 303 302 301 302 302 302 301 301 301 304 301 298 301 302 302 302 309 307 307 311 309 314 312 325 305 298 297 293 287 286 287 286 286 287 292 297 298 303 302 300 297 294 297 295 293 288 288 291 287 286 288
310 310 311 310 310 310 309 309 309 309 308 307 303 300 301 300 295 303 304 307 307 306 303 302 299 295 297 296 296 299 295 301 303 300 301 303 304 302 304 302 302 300 301 301 299 301 303 300 300 301 303 301 304 305 309 315 312 332 338 327 312 300 299 290 289 293 291 294 293 295 301 298 297 300 298 298 298 297 297 292 288 290 285 290 285 291 294
310 310 310 310 310 309 309 309 309 309 308 308 303 302 300 300 297 299 295 303 303 302 302 304 302 300 302 293 298 299 298 301 303 304 302 305 304 303 303 304 302 301 300 298 299 301 303 302 301 300 302 301 303 303 309 312 329 338 329 321 303 299 298 297 292 296 298 296 294 299 308 299 298 299 300 298 296 296 296 294 292 291 291 287 287 287 294
310 310 310 310 309 309 309 309 309 308 307 307 304 302 303 295 302 303 303 295 292 297 297 304 303 304 303 295 302 299 299 300 299 303 304 303 303 302 302 300 301 300 300 299 299 300 300 300 301 302 302 303 304 305 306 309 315 317 304 311 303 298 296 298 298 298 298 295 298 303 302 301 299 298 297 298 298 297 298 295 297 295 294 293 292 289 295
310 310 310 310 309 309 309 309 309 308 307 306 300 298 301 302 303 303 306 299 300 301 304 305 304 299 304 300 302 298 299 298 301 301 301 301 300 301 299 300 300 300 300 300 298 300 298 297 300 300 302 302 303 302 304 310 304 303 302 303 304 298 295 299 299 296 297 300 301 300 300 299 300 301 297 297 296 296 297 298 297 297 297 297 299 293 296
310 310 310 310 310 309 309 309 308 308 306 304 301 299 297 296 296 297 302 302 300 301 302 302 299 295 303 297 298 299 299 299 301 303 300 297 298 303 299 298 299 300 301 298 299 300 299 299 301 302 303 302 302 300 300 303 305 303 304 304 304 300 297 307 299 295 297 297 302 301 300 299 298 297 298 297 296 296 296 298 299 301 298 298 298 296 297
310 310 310 310 310 309 310 309 308 307 306 300 299 299 300 300 302 301 298 296 300 305 300 298 296 293 296 295 298 300 299 299 301 300 304 301 300 302 301 302 300 303 302 302 301 303 303 303 304 304 303 303 302 303 303 303 303 303 304 301 304 300 296 297 295 295 293 297 300 300 299 298 298 297 297 298 299 299 297 297 299 298 297 296 297 295 295
310 309 310 310 310 310 310 309 308 307 306 299 297 295 301 300 303 302 300 295 306 297 299 298 295 293 297 300 298 298 299 300 301 297 302 305 304 305 304 304 302 301 301 300 302 304 305 305 305 305 306 305 306 306 305 305 303 300 301 302 302 297 298 296 292 292 289 294 299 297 294 297 295 296 298 299 297 299 300 301 303 303 302 297 294 294 299
311 310 309 310 310 311 311 310 310 308 304 298 297 296 298 297 296 298 299 294 292 296 295 295 295 299 298 299 297 300 299 300 301 297 298 304 305 307 307 304 300 299 300 304 307 308 309 309 308 306 305 302 303 303 308 307 305 303 302 300 301 299 299 294 295 291 288 294 296 297 294 288 288 295 299 300 301 299 299 299 301 301 301 299 299 302 302
311 311 311 310 310 310 311 311 310 307 305 300 299 297 299 300 298 297 295 291 291 295 294 293 295 298 296 298 299 298 298 299 299 302 299 302 304 307 307 305 301 298 306 309 309 309 309 311 310 309 307 306 304 302 304 304 303 309 304 303 299 301 298 295 294 291 293 296 296 293 287 290 298 301 303 303 304 301 301 300 300 301 301 302 302 303 303
310 311 311 311 310 310 311 311 311 309 307 303 298 295 298 301 296 296 294 292 289 291 291 293 298 298 298 298 298 298 300 301 302 303 303 302 303 305 307 306 303 304 309 306 307 307 305 303 302 303 305 303 302 303 303 302 302 302 303 304 303 298 297 297 295 290 292 293 290 285 285 291 299 300 304 307 304 302 301 300 300 300 301 302 302 304 305
310 310 310 310 309 309 310 311 311 310 307 305 300 297 299 299 295 293 292 288 290 291 294 292 294 296 297 297 297 298 299 299 300 302 302 305 304 304 306 310 308 309 308 307 305 302 299 297 296 298 299 297 298 300 304 302 303 302 304 303 304 302 299 297 294 295 291 289 290 292 293 297 300 302 303 302 300 298 299 295 296 300 303 304 304 305 306
310 311 311 310 309 309 310 310 311 310 309 306 301 297 297 299 299 295 294 292 290 294 290 289 292 295 297 297 297 295 295 296 298 298 302 305 304 307 306 308 308 306 307 306 301 299 298 296 295 295 294 294 291 294 298 301 301 300 301 302 303 303 303 297 295 293 290 288 288 289 290 289 291 298 304 304 304 303 301 301 297 301 304 307 307 306 307
310 311 311 310 309 309 309 310 311 310 308 306 302 298 298 301 300 298 295 293 290 283 289 298 299 297 295 295 297 295 293 294 295 295 297 299 303 304 305 305 305 307 308 305 300 297 297 298 291 291 289 290 295 295 296 297 299 300 300 301 301 299 300 298 298 292 292 291 287 285 287 290 296 300 302 304 304 304 302 298 293 297 303 306 308 307 307
310 310 310 310 310 310 311 310 310 309 308 306 300 297 296 300 299 296 293 292 291 287 294 299 298 298 293 292 295 294 295 293 295 293 293 296 299 301 301 302 307 309 308 301 297 297 294 292 291 289 292 296 295 293 297 295 293 296 300 300 299 297 296 295 293 291 291 289 288 288 289 294 298 299 300 301 303 303 301 291 288 297 301 306 309 308 308
310 310 310 310 310 310 310 309 309 310 309 308 303 297 297 300 301 299 297 292 290 290 290 299 296 292 293 293 292 297 298 295 295 295 295 297 298 297 296 299 301 308 309 303 300 291 291 290 292 291 293 298 300 297 290 293 293 290 293 294 294 295 296 293 293 291 294 295 288 287 290 298 300 301 302 304 305 305 294 288 295 301 303 307 310 309 310
310 310 310 310 310 310 310 309 309 309 310 306 303 296 295 299 302 299 295 293 289 285 291 299 300 298 300 302 299 300 300 298 296 292 291 291 296 298 298 299 305 298 304 299 296 293 292 293 294 291 292 296 299 293 294 293 292 295 295 293 292 291 293 294 291 289 290 290 289 291 292 296 300 301 303 305 303 293 292 300 301 305 306 308 311 310 309
310 310 310 310 310 310 310 309 309 309 309 308 303 296 299 300 302 301 296 290 290 291 294 296 299 295 301 298 294 293 295 294 295 292 292 288 295 298 298 297 299 301 301 299 295 298 293 292 292 294 290 289 294 297 294 294 295 295 294 294 293 290 292 288 288 290 289 289 289 287 285 296 303 304 305 307 298 297 300 302 307 307 308 309 309 310 310
310 310 310 310 310 310 309 309 309 309 309 310 304 297 296 298 301 303 302 296 290 289 288 296 300 299 300 299 300 300 297 293 294 291 293 294 297 295 285 294 295 296 297 299 294 295 296 292 293 296 297 294 295 295 290 288 291 296 300 295 295 295 295 288 289 293 289 288 286 287 295 296 301 305 300 303 305 302 303 309 308 309 309 310 309 310 311
310 310 310 310 310 310 310 309 308 308 309 310 304 296 292 296 301 305 305 301 292 291 290 297 302 300 302 303 303 302 301 300 300 300 295 293 294 295 295 296 295 298 301 301 293 293 294 296 297 295 293 295 296 295 292 289 288 293 298 298 292 296 297 292 293 294 293 291 293 297 298 301 303 303 304 302 307 309 310 311 310 309 308 309 311 311 311
310 310 310 310 310 309 309 309 309 309 309 310 304 300 297 300 300 305 300 294 295 297 301 298 299 300 304 304 305 304 303 304 303 302 300 295 292 294 295 296 296 302 305 300 295 294 295 297 293 296 296 296 298 295 293 292 291 293 296 298 298 302 300 300 301 296 298 300 301 303 304 303 305 306 308 308 309 310 309 311 310 311 309 310 311 311 312
309 310 310 310 310 310 309 309 309 309 309 310 306 300 299 300 301 301 299 298 294 289 291 292 291 291 294 296 301 303 303 302 305 302 305 302 292 291 295 299 301 303 300 302 303 297 295 298 297 299 294 296 298 293 292 291 293 296 296 295 296 299 302 301 298 299 296 293 299 302 303 304 305 306 308 309 312 311 310 310 310 309 309 310 311 311 312
309 310 310 310 310 310 309 309 309 309 309 310 307 304 302 298 296 299 296 293 293 289 284 289 291 295 300 302 303 301 302 303 304 302 302 303 300 295 294 300 304 298 297 300 301 298 297 295 293 293 291 295 300 291 297 294 292 298 293 294 294 299 306 299 298 296 297 296 299 303 304 304 306 305 307 310 310 310 311 311 310 310 310 311 311 311 310
309 309 310 310 310 310 310 309 310 309 310 310 309 300 297 297 297 299 300 301 300 297 290 288 292 299 301 299 297 299 302 302 302 301 301 302 304 304 302 302 301 304 301 303 301 298 295 296 295 295 292 292 302 296 293 296 297 299 296 296 301 303 307 297 299 298 297 298 301 302 303 304 305 307 308 307 309 309 309 310 310 310 311 311 311 312 309
308 309 310 310 310 310 310 309 309 309 310 310 304 300 298 299 299 299 296 297 292 287 290 288 292 296 298 296 300 302 302 301 300 300 300 301 302 303 302 300 299 297 298 297 298 297 296 296 294 292 296 294 301 299 299 296 296 296 296 299 303 301 295 297 296 294 292 296 300 301 301 298 300 306 307 309 309 309 309 309 310 310 310 311 311 310 312
308 309 309 310 309 309 310 310 309 310 309 308 305 301 298 297 298 300 300 300 294 287 289 290 289 293 298 294 300 300 301 304 302 300 298 299 300 300 299 298 297 296 295 296 293 295 294 293 293 295 298 299 297 294 299 298 298 295 297 298 301 300 297 297 296 295 293 299 300 302 301 302 304 306 308 308 310 310 309 309 309 309 311 311 311 310 310
308 309 309 309 309 309 309 310 309 309 309 305 298 296 296 300 301 302 305 306 302 297 294 294 296 291 284 291 300 299 301 301 300 299 298 298 299 298 298 297 296 296 297 296 296 293 292 294 294 295 296 299 297 293 296 289 290 290 294 297 299 300 303 302 300 299 300 302 302 303 303 305 307 306 307 309 310 309 310 310 311 310 311 311 311 311 311
308 309 309 309 309 309 309 309 309 309 306 296 295 290 289 298 303 304 304 306 301 299 292 290 285 288 295 297 296 298 299 301 299 299 298 297 297 297 297 296 296 301 298 296 293 292 291 294 295 297 301 303 297 295 293 289 290 292 296 299 301 301 301 303 302 301 301 304 304 304 303 305 306 307 309 309 312 313 309 309 310 310 311 311 311 310 311
308 308 309 309 309 309 309 309 309 308 303 293 289 284 283 285 296 306 307 305 304 299 294 292 288 293 292 296 297 296 297 299 298 297 297 298 298 298 298 298 297 301 294 296 295 293 294 293 293 295 298 301 301 294 291 291 289 289 295 300 302 302 302 304 305 305 303 303 307 307 307 307 307 308 309 309 309 312 314 314 318 319 313 314 312 312 311
308 308 308 308 308 308 309 309 309 307 297 294 290 289 290 295 304 305 307 307 304 298 291 287 287 285 286 292 296 300 299 299 300 300 298 302 297 298 296 297 295 298 297 293 294 293 293 294 296 296 297 305 306 295 295 292 292 294 298 300 302 303 302 303 303 304 306 308 306 304 304 306 307 308 307 308 309 310 313 312 315 318 322 315 314 314 313
307 307 307 308 308 308 308 308 309 304 297 299 304 305 306 306 306 307 307 305 299 292 293 289 284 287 285 287 294 294 297 296 294 296 296 299 297 297 295 298 297 295 308 297 291 291 293 296 296 295 298 303 299 296 295 293 295 298 299 303 301 303 303 304 305 305 304 306 306 304 302 304 307 308 307 308 308 308 311 312 311 312 312 312 312 312 312
307 307 307 307 308 308 307 308 307 304 302 296 292 294 298 304 304 305 304 301 294 293 292 289 287 285 285 293 285 290 299 293 292 294 291 298 300 296 293 297 297 293 296 293 290 294 295 299 294 293 296 296 299 295 291 295 298 298 299 299 300 301 302 302 302 302 303 304 305 306 306 306 306 306 308 308 308 310 310 309 311 312 311 312 311 311 312
307 307 307 306 307 308 307 307 301 300 294 294 294 296 299 305 305 306 305 295 287 285 286 288 290 285 285 285 284 288 297 295 291 293 292 295 301 296 294 292 294 291 292 299 294 291 291 295 295 293 291 293 293 291 293 295 298 298 299 298 299 300 300 301 302 302 303 304 304 304 306 306 306 306 306 306 307 307 308 309 311 312 311 310 311 311 311
307 307 307 307 307 307 305 305 303 297 293 293 294 304 309 311 310 303 300 297 293 287 287 288 291 285 285 280 281 288 299 291 293 293 293 296 295 299 299 292 289 292 299 294 288 291 291 298 296 288 292 290 291 293 294 297 298 298 298 299 300 300 301 301 303 304 303 304 306 307 306 306 306 306 306 306 307 307 309 309 309 311 311 310 310 310 311
307 307 307 306 305 303 298 298 301 299 294 296 302 308 309 308 305 303 300 299 299 299 289 286 285 285 287 285 288 291 294 285 292 287 290 290 290 297 294 291 288 294 292 289 291 292 294 304 294 289 289 290 293 297 298 299 299 299 300 301 302 302 302 302 304 303 303 303 306 305 305 305 305 305 306 307 307 308 309 309 309 309 309 310 310 311 311
307 307 303 301 299 294 293 293 294 297 308 306 307 300 296 299 290 295 296 291 296 299 291 289 284 285 288 286 284 291 291 285 289 286 286 291 290 286 296 294 293 297 287 289 292 298 295 296 293 291 293 296 298 298 299 299 301 302 302 302 303 303 303 303 304 303 301 301 301 303 306 305 304 305 306 307 308 308 309 310 309 309 311 312 311 311 310
305 303 301 299 294 290 290 292 300 308 304 305 302 295 290 294 288 288 290 293 297 291 294 289 286 288 287 285 287 294 291 288 285 285 283 289 289 285 294 287 293 292 281 286 290 299 291 286 289 290 292 295 296 297 300 301 301 302 303 303 304 304 304 304 304 303 303 302 304 305 306 305 305 305 306 307 307 308 307 307 308 309 311 311 310 310 309
300 296 294 294 292 294 304 304 310 305 302 293 294 293 288 292 285 284 295 288 287 292 294 287 292 289 290 288 287 286 296 289 284 284 284 288 295 286 292 289 289 288 278 283 287 297 290 285 285 288 289 294 294 296 298 300 302 302 303 303 304 304 304 304 305 306 306 306 307 307 308 309 309 309 308 307 307 306 306 307 308 309 310 310 312 309 308
298 298 296 292 294 297 300 303 303 300 295 290 288 291 290 286 289 290 290 286 285 286 293 289 291 288 291 291 289 286 293 299 292 292 291 287 296 296 287 285 294 288 284 284 293 294 292 289 287 287 289 294 295 297 301 306 307 308 308 308 308 307 306 305 305 305 305 306 307 307 308 309 309 309 309 309 308 307 307 307 308 308 309 311 313 309 308
300 300 300 302 301 300 299 299 300 294 292 293 287 283 286 288 292 290 289 283 283 286 287 289 286 286 288 292 290 290 290 295 295 299 296 291 298 293 289 290 291 287 283 289 296 293 290 285 283 286 290 293 297 299 304 305 307 307 307 308 308 308 308 307 306 306 305 306 307 308 308 308 308 307 308 307 306 306 307 309 309 310 311 311 310 307 307
304 303 303 297 295 292 295 286 292 293 284 283 282 282 286 282 283 283 285 288 291 287 286 295 293 295 297 298 294 294 293 300 294 293 290 285 290 291 291 287 288 284 291 297 293 288 285 283 284 288 290 295 297 299 304 306 306 307 307 308 307 308 308 307 306 306 305 306 307 308 308 308 308 308 309 309 308 309 310 312 312 310 308 308 307 308 308
303 301 296 294 290 290 291 280 293 289 285 284 281 278 282 280 280 283 282 282 284 287 288 289 289 291 287 295 291 292 294 296 298 293 292 294 290 286 289 285 286 290 295 290 288 285 286 288 291 292 295 297 300 304 305 306 306 306 307 308 308 309 309 307 307 307 307 308 310 309 309 309 308 309 309 309 309 309 309 310 313 310 310 308 307 307 307
295 290 288 286 284 287 286 280 290 286 281 282 284 281 282 278 279 279 281 287 290 289 292 293 292 292 292 296 295 296 294 291 298 291 285 292 288 291 288 286 291 291 289 286 287 287 286 287 292 294 296 297 301 304 306 305 305 305 306 306 307 309 309 307 306 307 307 307 307 309 308 308 308 308 308 309 310 310 309 309 311 310 308 307 307 307 310
290 286 286 284 282 284 283 281 284 281 283 286 284 283 282 282 281 283 288 293 290 294 294 295 295 296 294 296 291 290 293 293 289 289 293 292 288 286 293 296 292 285 286 287 285 284 286 289 290 292 296 299 302 305 305 305 307 308 306 305 307 309 309 309 308 308 308 308 308 308 308 308 308 308 307 308 308 308 309 310 310 308 308 307 308 309 308
290 292 286 284 281 284 288 283 284 285 286 285 286 288 287 288 288 288 290 294 292 293 296 296 297 296 291 292 292 294 296 295 288 290 293 287 287 289 295 290 285 287 284 282 283 284 286 289 292 294 297 301 304 306 305 306 308 308 308 308 309 309 310 310 310 310 310 310 310 310 309 308 308 308 308 307 307 308 311 309 308 309 309 309 309 308 308
284 289 286 280 280 284 282 284 288 288 289 289 286 288 290 292 290 288 292 297 297 296 296 295 293 291 292 296 295 290 292 293 290 289 293 291 293 290 286 288 287 290 287 283 285 287 288 292 295 300 304 306 306 305 305 307 309 310 310 309 310 310 311 311 310 311 312 311 311 310 310 310 310 309 309 309 310 309 309 310 309 309 309 309 310 309 308
289 284 282 280 284 285 286 289 285 283 284 285 289 288 288 288 289 289 294 296 296 296 296 293 295 292 287 293 294 293 289 295 288 286 294 291 286 285 286 284 285 285 290 292 291 292 294 298 302 305 306 307 307 307 308 308 310 309 310 310 310 311 311 311 311 311 312 311 311 311 311 313 312 312 311 310 309 309 309 310 309 309 310 310 309 309 309
285 285 289 285 285 284 285 287 285 282 282 283 286 287 288 287 287 290 296 295 295 295 295 296 297 289 287 291 284 286 286 290 290 289 289 287 288 290 289 284 287 287 289 295 296 298 301 303 305 305 306 306 308 308 307 308 311 311 310 311 311 311 312 313 312 312 311 311 311 311 312 313 311 310 311 310 310 309 309 309 309 309 309 310 310 310 310
290 287 287 289 285 281 284 282 281 279 280 282 284 285 286 288 289 291 297 295 293 291 289 287 287 288 287 287 286 283 284 293 292 289 288 288 292 291 288 287 290 295 296 300 301 302 303 305 306 306 306 306 307 307 308 309 310 309 309 310 309 310 311 312 312 311 311 312 313 314 312 310 309 310 310 311 310 310 310 310 309 308 309 309 310 310 311
285 283 283 287 289 287 288 287 286 285 285 285 286 288 289 289 291 292 297 296 292 288 285 290 290 287 285 283 287 291 295 291 287 291 288 292 296 291 291 292 294 297 299 300 301 304 306 306 307 307 307 308 309 309 310 310 310 310 309 309 309 309 309 309 309 310 310 310 309 309 308 310 310 310 311 310 308 307 307 306 308 309 308 308 308 308 308
Wind_Speed
19 20 20 21 21 21 23 23 23 24 25 12 9 6 4 4 5 7 7 4 1 4 1 1 0 2 3 3 3 1 2 2 3 1 1 1 2 0 1 3 2 3 2 1 0 3 1 4 2 1 1 2 7 6 4 5 6 5 1 3 2 6 3 4 2 4 6 4 2 2 3 5 4 3 3 5 4 5 8 5 5 7 2 0 1 1 6
20 20 21 20 20 21 22 22 23 23 21 9 7 2 1 2 4 8 4 4 2 4 3 2 1 3 3 1 3 3 2 1 2 2 2 2 1 1 1 1 1 1 1 2 1 3 1 2 1 1 1 0 2 2 3 7 3 6 8 8 6 3 2 8 3 2 4 5 2 1 3 2 1 2 1 2 4 5 3 5 0 1 7 7 6 6 4
19 20 19 18 19 20 21 22 23 23 22 11 0 2 2 4 3 4 9 6 2 2 1 1 1 0 2 2 4 5 1 5 7 4 3 1 1 0 2 2 1 0 0 1 1 1 0 0 1 0 2 1 1 4 7 1 2 2 3 3 6 2 4 6 6 7 6 4 1 6 6 7 1 0 2 1 6 8 4 1 1 3 2 4 2 5 10
19 20 19 18 19 20 21 22 23 24 22 12 2 1 2 3 2 4 5 6 6 5 1 3 1 1 2 2 2 0 2 5 3 5 4 4 3 3 2 1 1 1 1 1 1 1 2 1 1 1 0 1 2 2 6 4 1 4 9 4 5 3 1 3 7 10 10 11 8 5 3 3 2 1 3 3 2 2 4 5 5 6 3 5 7 5 4
18 19 18 18 19 20 21 22 23 25 23 11 2 0 1 0 2 2 5 7 6 2 2 4 4 1 0 0 2 3 2 3 6 1 1 1 1 1 1 1 1 1 1 1 1 0 1 3 1 0 0 2 2 5 2 2 6 2 4 2 6 3 3 1 6 6 8 6 2 2 1 4 2 4 3 1 4 4 6 5 5 4 8 6 5 7 3
17 18 19 18 18 19 20 21 23 25 25 7 1 1 1 1 1 1 2 0 2 5 4 7 5 4 1 1 0 3 4 5 4 7 1 5 1 0 0 3 1 3 3 3 2 1 1 1 1 2 1 1 2 2 4 3 6 3 1 2 3 5 4 2 2 1 1 3 1 0 1 1 3 4 4 3 3 3 4 4 4 7 5 9 5 6 5
18 18 19 19 17 18 19 21 22 25 26 8 1 2 4 2 1 0 1 1 2 1 5 5 3 3 3 0 5 4 6 4 3 1 7 6 3 6 0 1 4 1 3 2 2 2 2 1 0 2 0 1 1 1 2 0 7 4 2 4 1 4 2 2 1 3 2 0 1 1 3 1 1 0 3 3 6 7 6 5 4 9 6 6 4 4 11
17 18 18 18 17 17 18 19 22 25 25 7 5 6 2 4 3 3 5 1 2 4 3 2 3 4 6 2 4 2 4 6 9 2 1 4 5 6 2 6 8 4 1 3 2 3 1 2 2 3 2 0 0 1 3 1 2 3 1 0 3 3 1 3 1 2 0 2 2 2 2 5 1 2 2 1 2 2 4 2 1 2 5 7 6 5 9
16 17 18 18 16 17 17 17 20 23 19 7 7 2 4 3 1 1 2 4 3 2 3 3 3 2 5 5 3 3 4 3 5 6 3 0 3 5 7 9 8 1 4 5 3 2 3 3 4 2 4 1 5 4 3 3 2 1 1 1 1 3 1 1 2 2 1 1 1 0 2 2 1 2 3 4 2 2 3 2 5 4 5 2 0 2 7
16 16 17 18 16 16 16 15 17 18 14 5 3 4 4 2 1 2 0 0 2 3 3 2 1 3 2 3 3 2 5 4 7 4 2 1 2 4 7 8 2 1 5 4 4 9 6 9 9 5 7 4 3 2 2 7 6 3 2 0 3 2 6 3 2 3 2 2 1 2 3 2 4 7 9 8 4 2 0 1 2 6 3 2 4 7 7
16 15 16 16 16 16 16 15 16 17 12 8 5 3 5 6 5 5 1 1 3 3 1 5 4 1 2 5 3 3 4 5 5 3 4 4 4 7 7 9 2 1 2 2 6 7 11 9 9 1 3 0 2 2 3 4 1 4 8 2 1 3 7 3 2 3 2 1 3 2 1 3 6 7 6 7 3 5 4 4 5 6 6 6 7 8 4
15 16 15 15 15 16 15 14 13 14 10 3 2 1 1 2 1 1 3 1 1 3 4 2 2 2 4 7 4 2 6 9 4 1 5 3 9 8 6 5 4 1 0 8 9 11 8 4 2 1 1 6 5 4 6 4 1 1 0 7 3 5 3 4 1 3 1 1 2 0 5 8 8 4 3 1 0 3 5 6 6 6 5 4 7 9 9
14 15 15 15 15 15 14 14 12 12 11 6 4 3 3 1 1 0 1 1 1 4 4 1 2 2 2 3 5 5 7 7 7 7 6 4 6 4 2 2 3 5 11 15 13 7 3 0 1 1 2 6 4 7 8 7 2 5 5 3 9 5 6 4 2 4 2 2 3 1 6 5 5 9 5 2 1 0 1 5 6 8 8 8 7 12 7
14 14 14 14 15 15 15 14 12 10 11 8 6 2 2 3 3 3 2 2 2 1 1 3 4 6 7 5 2 7 5 8 8 1 1 1 3 6 3 1 4 9 9 7 5 1 3 4 1 1 2 6 2 1 1 2 0 1 3 2 3 10 4 4 2 1 4 4 7 8 3 6 3 2 2 5 5 4 4 5 5 5 6 9 5 5 3
14 13 13 13 14 14 14 14 12 10 10 9 3 2 3 4 2 0 1 1 1 2 1 0 2 3 5 3 3 5 3 5 8 4 2 2 2 2 3 7 10 10 7 0 1 4 2 3 1 2 1 2 2 4 3 1 2 5 3 3 5 4 6 3 5 2 4 4 1 2 3 6 6 10 7 2 1 3 5 3 5 4 6 6 6 6 5
13 13 12 13 13 13 13 13 11 9 9 11 5 3 2 2 1 0 0 1 0 1 1 1 2 2 2 2 2 3 2 4 4 5 7 4 2 10 4 6 11 7 3 2 1 4 1 2 2 3 3 3 2 1 2 2 1 2 6 5 7 7 6 7 7 2 3 1 3 4 4 7 8 8 9 2 3 7 6 2 6 7 6 8 7 5 6
12 12 12 12 12 13 13 13 12 10 8 10 6 3 2 3 4 1 1 2 1 3 1 3 2 0 1 4 4 3 2 2 3 3 5 6 6 6 13 13 7 3 7 1 5 2 2 5 2 2 1 1 2 2 1 1 1 1 2 5 8 6 3 3 2 1 3 4 2 6 4 3 3 10 7 5 4 5 3 4 5 3 3 6 7 7 9
13 12 11 11 12 12 12 12 13 11 9 9 6 1 3 3 4 0 1 1 1 3 1 2 3 2 1 0 1 3 2 2 3 1 1 4 3 5 8 9 11 7 4 4 3 4 2 2 2 2 3 2 0 2 2 2 2 3 2 3 2 2 1 2 6 5 3 5 4 3 5 5 7 7 7 2 3 1 3 8 8 4 6 8 8 8 9
12 12 11 11 10 11 11 11 12 13 10 9 7 2 1 2 5 3 3 2 3 1 2 5 2 1 1 1 1 1 1 0 1 1 5 4 1 5 7 7 1 6 8 2 5 4 1 0 1 1 1 0 0 1 1 1 2 0 1 1 1 1 2 2 3 3 6 6 5 8 4 6 7 4 4 5 5 4 8 10 4 7 7 5 7 7 7
12 12 11 10 10 10 10 10 11 12 12 8 6 1 5 2 3 4 3 1 1 2 5 3 1 2 1 1 2 2 5 3 2 1 1 2 3 10 2 1 2 2 5 3 4 1 2 0 1 1 1 0 0 1 0 1 1 2 2 1 1 4 3 3 3 2 2 1 1 3 3 3 2 6 2 1 3 8 8 2 0 4 6 9 5 8 9
13 11 10 10 9 9 9 9 10 11 12 8 5 3 4 1 3 2 0 3 1 2 5 3 1 3 0 0 1 1 1 3 2 1 3 3 4 2 2 1 4 3 3 2 2 1 1 2 1 1 1 0 3 1 1 1 3 2 0 3 2 3 0 1 3 6 3 4 3 4 7 2 3 6 7 7 10 3 7 7 2 1 4 7 7 5 9
13 12 11 10 9 9 8 8 8 9 10 8 5 2 1 3 3 3 2 2 2 5 5 2 0 3 6 6 6 6 7 8 5 3 2 3 2 0 1 2 2 1 1 1 3 2 3 0 0 2 3 2 3 1 1 1 1 3 2 1 2 4 2 4 3 2 4 5 7 7 4 6 6 4 4 4 6 2 5 4 8 8 5 4 7 9 7
12 12 11 10 9 8 8 8 8 8 9 7 5 2 2 5 5 6 0 1 3 3 3 2 2 3 2 5 5 6 7 6 5 3 4 2 3 2 2 1 2 2 1 2 2 1 1 0 1 1 0 2 1 2 1 1 0 2 1 2 1 1 1 2 1 5 3 4 6 4 5 3 7 5 3 4 2 1 1 2 6 1 2 8 8 8 9
11 11 11 10 9 8 7 7 7 8 7 6 3 1 3 2 4 5 3 1 2 5 3 1 3 1 2 3 6 5 3 1 3 3 3 4 2 4 2 2 2 2 1 1 0 1 2 1 2 1 0 2 1 1 1 1 0 1 1 2 2 2 0 1 1 2 4 4 2 5 5 7 5 7 4 0 0 0 1 2 2 4 5 3 2 8 9
11 11 11 10 10 8 8 7 7 7 6 8 6 1 1 2 1 2 2 4 4 4 1 5 3 4 0 4 5 5 3 0 2 3 2 4 6 3 3 2 1 1 5 5 2 2 2 0 2 1 0 4 3 3 1 0 2 1 4 4 3 1 1 4 1 0 1 4 4 6 7 6 7 6 3 0 1 3 3 1 3 6 3 3 5 8 6
10 10 10 10 9 8 8 6 7 7 6 7 5 1 2 4 2 1 1 1 1 1 3 3 5 4 3 6 3 3 5 5 4 2 4 7 8 9 8 4 4 0 2 2 1 0 1 0 1 0 1 4 1 1 1 2 2 1 3 7 6 4 5 3 1 1 4 5 6 6 6 4 4 2 1 2 1 4 4 4 6 7 8 6 4 2 6
10 10 10 10 10 8 8 7 5 5 5 4 1 2 2 4 2 1 1 1 1 1 1 3 5 6 3 8 6 3 4 3 3 3 4 4 7 6 4 4 6 4 1 1 1 1 1 1 2 3 3 4 1 1 1 4 2 2 2 6 1 0 3 2 2 3 3 1 2 1 1 2 4 2 2 3 3 6 5 5 5 7 8 6 8 5 4
10 10 10 9 9 8 8 8 6 4 2 3 3 5 1 1 2 2 1 2 3 2 2 4 6 9 6 5 4 3 6 4 4 4 4 5 5 4 4 5 4 3 2 0 1 0 1 3 4 3 1 3 1 5 2 2 1 2 4 5 2 1 2 1 2 1 5 8 8 5 1 3 6 6 4 4 3 5 11 7 8 5 6 8 10 8 4
10 10 9 9 8 8 8 6 5 5 2 3 3 3 2 2 2 0 2 1 0 1 3 5 5 3 1 5 5 5 3 4 4 5 5 5 5 6 6 6 6 5 1 1 1 1 1 3 2 2 1 3 1 3 1 2 3 6 6 4 2 3 1 2 5 4 8 10 10 3 3 3 2 4 5 3 1 2 2 4 3 8 8 6 8 9 9
10 10 9 8 7 7 7 6 2 2 2 4 2 2 2 0 1 1 2 3 1 1 1 4 5 4 3 2 4 4 3 3 5 6 6 5 5 6 8 6 6 5 3 3 4 2 3 2 2 2 2 1 2 2 1 2 4 7 3 4 6 4 4 5 4 2 5 9 5 4 5 6 5 3 1 2 1 1 2 5 6 6 5 5 8 5 6
10 9 8 8 7 7 6 5 2 5 4 3 2 1 1 0 1 1 4 4 3 1 0 1 5 5 6 3 2 6 9 7 3 3 5 7 7 6 4 5 3 5 3 1 1 5 1 2 0 2 1 2 3 2 4 1 4 4 4 4 3 4 4 6 3 2 4 7 5 2 2 3 2 2 2 2 3 3 3 2 3 3 6 5 4 5 5
9 8 8 7 7 6 6 5 2 6 2 2 1 1 1 1 1 2 5 6 4 1 1 3 4 3 2 4 2 2 4 6 1 2 2 1 1 1 3 8 5 5 4 5 4 1 3 4 3 3 1 3 2 2 1 4 9 8 3 5 3 3 5 8 12 8 1 1 4 7 5 2 3 5 7 8 7 5 4 4 2 2 3 3 4 4 4
8 7 7 6 6 6 5 1 4 5 2 4 5 7 10 12 13 9 5 3 0 0 1 1 1 2 1 4 5 5 3 3 4 5 4 0 1 1 1 2 1 1 5 1 1 3 4 5 3 5 7 2 3 2 5 10 14 3 2 6 4 2 5 9 9 11 11 4 3 4 8 7 6 10 4 1 5 7 5 6 5 5 5 5 5 5 4
7 6 6 5 6 5 2 4 7 5 4 3 3 3 3 4 4 5 2 1 0 1 1 1 2 2 4 5 2 1 4 3 3 4 4 3 0 0 2 0 1 2 2 6 4 0 1 0 3 4 0 2 2 3 7 9 2 4 5 4 6 7 7 8 6 7 9 11 6 8 10 10 5 4 1 2 2 1 3 4 6 7 5 6 5 5 6
6 5 5 5 5 4 3 5 2 1 1 1 3 6 3 5 5 3 4 2 1 1 1 2 1 2 5 5 2 4 3 2 4 2 0 5 1 1 1 1 1 0 2 1 1 2 3 4 5 2 6 0 1 5 8 2 0 2 1 4 4 5 5 8 8 6 8 8 7 7 6 6 5 5 7 6 6 6 8 5 5 10 8 6 6 5 5
5 5 5 4 3 3 2 3 1 1 1 2 4 3 4 4 2 2 2 1 1 1 1 2 1 2 2 1 3 3 2 1 2 2 2 2 5 1 0 1 0 5 0 2 3 0 2 2 3 4 2 3 9 5 2 1 3 3 5 5 7 6 7 9 11 12 8 5 6 7 7 5 8 10 8 6 5 5 7 8 5 5 9 8 6 4 3
6 6 5 4 3 3 1 1 0 2 4 4 4 6 5 4 2 2 1 1 1 0 1 0 1 4 3 3 1 5 3 3 3 3 3 3 2 2 2 2 1 1 1 2 1 2 6 0 1 3 3 8 3 4 5 6 5 7 7 9 8 8 8 9 10 10 12 10 6 5 5 6 8 5 6 8 10 8 9 10 11 11 10 10 7 6 6
7 5 3 3 2 1 1 1 3 4 5 4 3 3 3 2 1 1 0 1 2 1 1 1 3 3 1 1 3 5 2 3 2 2 4 2 1 2 0 1 3 0 2 1 4 3 0 1 4 6 8 6 4 4 6 5 7 7 8 8 9 8 9 9 10 10 10 11 8 3 2 3 6 6 8 10 10 12 12 8 6 5 7 8 8 7 7
7 4 2 2 2 2 2 1 3 3 2 1 1 1 1 0 1 1 1 1 0 0 1 3 4 1 2 1 6 3 2 1 3 2 1 2 1 3 1 1 2 1 1 1 4 2 1 2 2 2 9 1 1 4 5 7 5 6 7 8 8 9 9 10 10 12 13 13 13 11 10 10 10 12 10 7 4 1 3 6 6 6 7 8 8 6 6
2 3 3 3 3 3 1 2 2 3 0 1 0 1 0 0 2 1 1 1 2 2 2 4 3 4 5 6 2 4 1 2 0 3 1 6 1 1 1 0 3 2 2 0 4 2 1 2 2 1 7 2 3 3 3 3 4 5 6 6 7 9 9 11 12 11 12 14 13 13 11 12 13 13 12 10 9 8 6 4 4 6 7 7 6 7 7
2 2 0 3 2 2 0 1 2 1 1 1 1 0 0 0 2 1 1 2 2 4 2 2 0 1 2 2 2 5 4 0 1 1 1 1 2 1 1 1 1 1 1 1 4 1 0 1 2 5 6 1 2 4 5 8 8 7 7 7 8 9 10 12 13 13 12 12 11 10 9 9 7 6 8 12 10 9 8 7 7 6 6 6 7 5 3
1 1 1 1 2 3 1 1 1 1 1 0 1 1 1 2 1 1 1 3 4 2 3 2 1 2 3 7 5 3 3 2 1 0 0 2 2 0 2 1 3 2 3 6 1 2 0 2 3 3 2 3 5 4 5 7 7 8 10 9 9 9 10 11 13 14 11 12 12 11 8 5 4 6 6 5 6 6 6 6 5 4 6 4 5 6 5
5 6 3 3 1 1 0 2 1 1 2 0 2 0 1 0 2 2 1 2 1 2 2 1 2 1 0 2 0 2 1 0 1 1 1 2 2 2 1 2 2 1 3 0 1 0 2 3 5 6 3 6 8 6 4 5 6 7 9 7 7 8 9 10 11 13 11 10 11 10 7 8 9 10 10 10 10 9 6 3 4 6 5 5 6 5 5
3 2 2 0 1 0 1 1 1 1 1 1 2 2 3 1 2 1 1 3 1 1 2 3 3 2 2 0 1 0 0 1 2 1 0 0 2 1 1 1 3 5 1 1 1 4 5 4 9 8 8 8 6 4 5 5 5 6 8 7 6 7 8 9 6 4 3 2 2 5 7 9 10 9 8 9 13 14 12 11 8 7 7 7 6 5 5
3 2 1 1 1 1 1 1 0 2 2 2 2 2 3 5 5 4 5 3 1 1 0 1 1 2 1 0 1 0 1 1 1 1 1 1 2 1 1 3 1 1 0 3 3 4 4 8 3 3 5 6 7 5 5 5 4 5 6 6 7 8 8 8 7 6 4 6 5 1 6 11 12 13 13 13 10 11 13 10 9 8 7 7 6 6 4
3 3 2 3 2 1 1 0 1 1 2 2 4 5 4 5 5 4 4 1 0 0 2 2 2 0 0 0 1 1 1 2 1 1 1 1 1 4 3 1 1 1 2 2 4 7 9 8 4 6 7 7 7 8 5 4 5 4 2 4 6 6 7 6 5 4 6 7 9 10 9 7 2 7 6 6 6 4 5 7 7 8 7 7 6 5 5
1 0 1 0 2 1 0 2 5 4 3 3 4 6 7 5 5 2 1 1 2 3 1 0 1 2 1 0 1 2 1 1 1 2 1 1 3 3 0 0 3 3 3 5 6 6 6 5 5 5 6 7 7 6 4 4 5 4 3 3 4 5 6 7 5 5 4 8 12 13 12 10 6 6 8 8 7 7 8 8 8 6 5 6 5 5 4
2 2 1 2 2 3 5 4 1 1 1 1 2 3 4 1 0 3 3 2 1 2 2 2 1 1 1 1 1 2 1 1 1 3 2 2 0 2 1 3 4 2 3 4 7 4 5 6 5 5 6 7 7 6 5 4 4 4 3 3 4 5 6 8 7 7 8 9 10 11 11 9 9 7 5 9 9 8 7 7 7 6 6 5 5 4 5
2 1 1 2 2 2 2 0 2 1 2 2 1 1 2 3 4 6 3 0 1 1 0 2 0 1 1 0 1 1 2 2 3 2 1 2 2 2 2 4 4 7 5 5 8 7 7 7 7 6 8 8 7 5 4 2 2 2 2 2 2 3 4 4 4 6 6 7 8 9 9 6 4 4 2 5 7 8 6 4 5 5 5 7 7 6 5
1 1 1 1 1 2 1 1 3 2 4 2 0 1 1 2 3 5 2 2 0 2 2 2 2 1 1 1 1 1 2 1 2 0 2 4 4 3 3 7 5 4 3 2 4 7 8 9 7 7 7 6 5 2 2 1 1 1 2 2 1 0 0 1 3 4 2 3 5 8 8 6 5 3 2 3 4 3 4 5 4 6 5 4 6 6 6
1 0 1 1 1 1 2 2 3 2 1 2 1 1 2 2 3 2 2 3 3 3 2 1 0 1 0 0 0 2 2 2 3 4 3 3 2 3 4 6 4 2 5 5 7 9 10 9 7 8 5 4 4 4 2 0 1 1 1 1 2 2 2 3 4 4 4 4 4 5 5 3 2 2 3 5 5 5 5 5 4 4 5 4 4 6 6
1 1 2 2 2 3 2 0 0 3 4 3 2 4 2 1 3 2 1 5 4 3 1 1 2 1 1 3 3 2 1 1 2 2 4 4 2 3 3 4 6 6 8 9 9 7 7 6 6 6 4 5 4 3 3 1 1 1 1 2 2 3 3 3 3 4 4 4 2 3 4 4 5 5 3 4 4 4 5 4 2 3 4 4 4 4 5
Wind_Direction
345 345 345 344 342 342 342 342 342 344 348 360 348 322 353 47 237 267 321 351 78 87 55 304 167 183 233 298 287 234 287 224 250 342 278 293 202 288 183 208 155 248 171 164 142 176 203 163 215 222 201 246 212 217 145 135 89 84 28 56 197 95 79 72 321 309 303 315 300 70 88 111 82 26 89 119 168 181 168 176 177 147 150 17 340 218 250
345 344 346 344 343 342 341 341 342 343 356 341 311 17 67 246 276 313 300 352 61 114 201 250 259 278 314 5 265 252 248 204 313 244 273 184 339 198 241 320 191 185 159 123 197 196 134 230 135 320 203 278 206 307 38 166 181 142 211 151 211 139 291 115 87 12 339 345 350 11 333 56 121 175 192 114 93 76 129 108 78 120 216 175 132 236 284
346 347 347 344 343 342 341 341 340 342 345 352 258 338 287 278 259 240 297 337 48 165 187 147 176 349 303 312 312 329 324 216 218 205 264 274 221 105 258 213 168 95 129 100 63 33 137 274 250 149 189 256 319 327 43 169 176 238 194 137 132 84 171 112 134 144 163 195 230 250 248 226 223 60 82 189 125 137 120 166 107 190 284 118 160 253 253
348 347 348 345 343 343 342 341 341 341 344 350 185 278 348 17 20 305 331 358 11 62 40 74 88 101 10 13 279 251 305 321 292 180 262 229 265 210 260 355 72 47 72 62 48 52 2 81 245 121 212 291 325 251 338 110 181 127 107 88 75 126 116 97 154 159 179 199 210 255 118 73 163 216 135 171 56 85 92 100 106 205 203 183 234 190 291
350 348 348 347 344 344 343 343 343 342 344 359 136 209 148 205 66 351 336 333 31 77 13 31 31 40 230 213 302 356 331 285 309 350 275 70 197 300 176 206 144 266 101 171 122 203 194 340 120 343 216 267 249 316 24 15 36 59 90 56 85 78 127 208 141 173 193 169 188 192 163 168 211 139 194 165 147 153 121 156 218 165 102 278 262 200 187
350 350 350 349 346 345 345 346 347 344 344 15 175 1 348 49 251 104 191 128 291 17 335 18 339 311 244 220 332 25 359 2 353 317 316 323 328 341 328 43 93 186 185 143 129 285 79 11 161 325 149 328 338 25 359 49 304 2 62 358 117 138 140 208 115 156 238 197 205 64 97 125 172 174 144 165 195 142 171 228 191 143 197 227 251 173 198
351 353 352 351 347 348 348 350 350 349 342 4 137 72 314 106 317 227 325 130 271 179 282 318 294 311 12 166 37 9 23 350 324 277 316 350 357 18 272 319 315 305 203 126 160 185 131 295 255 180 223 129 4 67 337 281 13 58 42 26 127 92 44 187 161 126 96 75 276 285 126 61 68 191 193 176 160 201 197 228 185 185 218 225 243 178 229
352 353 352 352 350 349 351 354 356 353 344 345 79 51 11 9 25 321 347 25 292 278 311 323 31 77 346 64 348 8 9 346 339 312 281 333 338 3 31 320 325 340 137 112 98 223 157 179 139 208 125 14 130 219 186 188 9 48 81 62 342 101 239 143 152 75 7 314 340 77 128 131 192 274 301 253 161 204 231 239 229 177 303 284 260 234 270
351 354 353 355 351 351 353 1 3 0 352 45 35 59 35 308 327 329 359 10 315 328 13 13 45 54 356 50 325 346 358 356 337 284 238 147 15 4 318 298 296 323 95 71 91 48 340 273 274 195 162 181 225 145 264 138 132 29 54 33 342 68 181 51 74 111 299 316 129 318 43 58 97 304 290 275 252 268 213 180 209 144 219 250 30 259 264
348 354 353 354 353 354 357 6 9 9 5 70 24 29 324 309 289 354 251 306 349 31 320 333 42 33 342 359 319 335 308 323 325 323 298 299 124 35 324 318 165 347 62 58 7 319 297 277 268 266 240 237 250 239 213 162 153 175 117 284 134 135 134 136 98 115 263 258 32 65 38 10 335 281 247 220 203 200 223 286 186 209 177 177 225 234 225
344 350 355 355 356 356 0 8 13 16 17 33 22 352 353 17 344 343 335 355 329 12 34 12 74 79 331 352 319 321 297 331 350 46 290 352 316 1 348 359 28 93 94 333 310 288 273 263 274 317 59 113 177 186 143 119 75 151 146 88 41 113 118 144 162 139 240 310 14 34 93 236 232 234 182 142 173 192 208 249 228 234 160 204 195 229 250
344 344 351 355 356 356 2 7 17 20 32 20 150 243 239 303 284 191 24 73 261 345 73 87 68 309 13 328 318 320 326 320 317 265 247 293 290 322 343 5 53 348 298 325 317 305 276 247 250 273 22 11 45 64 104 138 10 40 121 139 153 128 91 122 171 103 212 59 61 142 235 231 242 296 274 273 354 166 197 237 252 254 241 276 286 273 260
343 345 350 353 356 358 1 3 16 16 21 16 55 13 292 300 150 57 95 100 286 356 31 320 340 302 283 322 346 325 310 288 293 283 240 255 301 341 6 357 0 271 326 316 328 336 99 354 338 97 309 351 357 39 51 35 44 19 40 87 125 144 121 142 61 119 78 74 89 183 240 236 286 285 255 222 158 145 131 294 283 250 224 203 231 247 262
340 341 346 351 354 354 359 1 9 16 16 19 15 339 308 2 29 22 46 80 315 238 219 305 357 353 356 348 344 309 313 330 322 257 344 261 295 288 293 305 293 300 300 300 313 19 45 39 47 22 279 12 6 122 302 301 304 40 85 56 81 139 92 119 139 202 179 200 174 222 301 336 326 346 258 155 206 175 171 239 274 235 193 169 208 249 228
337 340 341 346 351 353 356 356 2 12 14 14 15 335 4 1 34 97 300 96 223 308 51 26 315 298 310 303 360 349 355 326 352 329 294 282 258 268 282 297 308 308 300 211 335 36 144 112 85 125 332 97 172 222 325 157 321 44 51 65 95 126 159 227 135 237 120 126 323 333 294 249 277 242 258 309 198 150 153 120 283 290 241 200 189 217 181
335 338 341 342 347 351 351 354 358 11 17 10 22 3 299 325 315 121 133 124 113 7 307 302 283 270 300 290 335 59 347 322 317 297 329 339 281 321 307 320 311 302 318 85 81 97 75 154 197 121 193 201 228 106 223 341 48 359 34 60 74 37 82 129 148 171 83 81 180 206 196 241 212 244 247 232 187 130 128 67 293 265 212 202 188 203 185
334 335 337 335 341 344 349 353 358 5 20 25 357 355 332 3 24 42 62 19 77 218 258 320 310 79 19 342 8 12 360 341 330 14 338 336 324 311 304 332 306 359 352 65 11 75 48 51 76 145 272 190 120 200 114 56 98 3 1 31 43 45 0 57 59 90 186 149 175 246 205 228 239 234 259 239 165 109 64 291 277 258 237 181 172 186 181
329 331 332 336 338 342 348 351 354 355 17 16 12 310 290 327 357 117 68 96 90 293 271 325 20 39 25 190 203 282 358 356 9 350 218 277 340 349 330 340 341 333 21 78 355 67 63 114 135 170 175 237 197 105 190 192 144 200 171 151 133 80 15 70 189 192 175 166 249 339 302 269 251 249 243 212 127 105 156 213 232 239 195 186 179 187 174
326 326 327 331 335 339 344 347 349 351 8 25 357 33 310 333 346 32 113 55 74 246 278 299 260 262 301 22 223 245 261 298 248 72 311 358 42 301 278 262 286 342 5 51 44 61 69 15 70 99 130 288 271 214 199 86 224 183 139 92 67 359 95 345 66 136 188 193 188 230 247 237 215 243 188 168 111 204 211 230 214 161 189 188 173 160 169
324 325 325 326 330 333 337 349 344 347 353 26 34 318 270 322 336 25 69 129 114 269 289 269 306 263 1 61 356 32 338 23 15 70 3 257 308 343 31 9 333 23 338 51 51 320 87 42 279 310 20 260 289 185 72 269 196 158 154 192 141 199 140 207 182 185 63 71 133 326 306 283 193 128 70 168 182 231 204 162 231 195 165 155 175 162 174
319 321 320 320 327 329 334 342 341 341 344 15 47 12 339 299 358 4 322 145 121 346 305 266 199 251 349 319 238 122 126 243 282 324 253 240 287 3 98 185 304 4 6 35 93 348 81 339 330 340 255 145 299 20 208 330 323 292 177 187 191 196 249 263 262 178 195 162 165 195 210 225 253 173 188 213 207 192 170 145 114 208 155 159 151 179 175
315 318 320 322 321 322 329 338 340 337 339 10 61 64 332 279 317 308 313 155 138 191 223 218 223 265 259 256 250 239 241 248 243 192 247 301 317 309 248 342 285 252 266 74 34 9 7 311 277 25 9 319 359 69 181 86 243 281 340 104 326 235 176 181 248 246 152 203 213 245 241 241 261 258 255 239 277 237 197 169 157 161 207 182 158 177 181
315 317 317 314 315 320 324 327 331 334 340 4 70 73 271 308 326 323 14 153 289 290 275 311 313 287 286 262 244 237 247 234 238 216 190 176 302 311 245 272 292 248 324 73 89 156 236 98 255 178 352 220 184 322 343 161 231 345 29 241 175 306 165 183 121 260 273 249 214 290 307 311 302 280 248 259 297 280 102 184 135 238 154 168 169 167 163
312 314 313 312 313 314 315 322 331 332 347 354 107 62 309 268 282 346 354 67 57 311 328 2 44 19 35 329 314 312 302 266 211 216 194 171 184 298 326 250 247 339 36 89 131 312 257 167 236 138 230 253 85 65 158 317 266 257 341 323 339 290 53 57 223 291 29 289 319 332 299 300 292 299 302 251 232 251 106 105 122 144 140 115 95 151 158
307 310 311 312 313 310 310 316 324 334 343 340 348 317 317 331 304 39 20 30 355 49 337 311 305 223 300 272 270 276 252 207 295 263 232 197 197 201 218 200 39 290 285 302 340 25 25 13 339 48 358 268 115 276 244 94 292 71 23 278 349 348 21 4 221 100 178 240 277 286 282 263 266 254 278 118 27 27 18 71 132 130 132 121 133 121 115
301 304 306 305 304 308 310 311 319 329 337 338 7 14 308 271 261 359 237 339 268 281 330 309 277 305 314 338 305 244 281 292 276 270 212 213 216 221 251 310 319 340 275 263 176 139 198 98 162 171 125 288 84 157 242 199 234 223 183 241 208 262 355 282 236 267 280 292 282 290 307 313 328 345 211 235 186 98 70 90 111 118 107 96 71 64 145
298 302 303 306 300 298 295 301 316 324 341 337 9 267 265 281 289 234 98 322 29 19 20 282 295 290 2 307 285 295 270 252 252 246 262 237 229 235 237 252 273 312 42 323 317 154 124 181 121 234 189 233 182 226 230 307 232 255 240 269 269 69 278 262 24 343 319 223 252 144 33 293 298 299 245 196 197 126 118 108 102 116 118 121 103 59 40
295 297 299 301 301 294 290 296 312 347 26 340 335 312 286 239 281 235 285 6 96 152 260 289 285 284 302 276 258 241 277 270 253 246 237 248 238 228 209 219 221 261 293 53 340 114 146 140 240 236 239 295 3 291 246 234 5 314 246 254 207 176 214 57 4 214 284 286 272 231 184 223 227 218 221 213 212 157 142 160 152 159 140 138 121 111 84
288 291 295 299 300 295 291 295 312 327 342 352 6 2 0 21 23 282 285 295 104 160 229 250 271 335 22 295 314 300 260 224 242 233 236 231 213 212 217 211 198 206 170 117 178 158 159 228 204 166 205 213 144 269 348 256 218 234 233 224 192 225 166 209 216 227 259 261 280 234 180 239 253 232 226 258 302 320 216 148 152 153 161 162 143 150 143
278 286 293 295 294 289 284 294 1 101 97 44 48 49 58 123 225 80 358 17 322 177 23 350 341 266 291 311 296 285 286 233 240 239 235 236 219 203 206 192 214 212 182 185 163 226 223 200 263 269 260 152 261 215 247 216 237 248 226 220 239 268 222 231 191 167 280 299 303 249 244 273 285 273 215 240 263 167 221 182 173 169 190 178 148 161 162
274 280 287 291 289 285 288 280 222 129 71 71 72 54 61 338 272 159 351 349 346 113 219 161 240 301 324 253 277 295 302 312 290 240 229 220 227 216 204 179 238 166 180 246 172 227 155 260 187 273 303 206 179 180 201 204 263 297 247 187 227 255 293 301 286 194 262 296 300 287 245 263 290 45 358 301 268 229 282 266 221 203 176 171 167 155 170
269 279 286 287 284 278 279 281 144 130 98 93 120 162 185 200 309 288 318 324 335 40 56 339 327 346 293 306 287 270 297 295 309 311 294 164 275 169 164 177 206 203 175 172 208 122 222 208 184 238 254 241 181 238 193 226 253 236 69 343 303 322 324 330 319 317 285 281 332 322 349 320 303 175 198 214 198 177 201 218 215 99 105 92 82 75 84
270 278 282 281 275 268 268 317 115 136 183 237 254 272 272 266 265 270 285 287 30 177 144 70 233 273 296 266 311 313 295 349 1 6 339 184 241 146 223 161 159 131 244 191 248 200 216 174 167 208 235 181 207 223 241 241 240 281 4 278 297 310 292 283 284 291 294 254 152 246 268 260 237 241 233 277 174 178 178 158 162 123 104 105 97 91 81
269 277 278 274 263 252 249 117 124 100 35 37 347 300 274 275 275 261 200 141 141 240 74 141 303 316 275 323 27 294 4 11 303 3 344 297 216 41 251 66 212 154 210 173 249 51 310 101 175 225 35 240 216 250 250 252 294 274 264 273 273 279 274 277 271 267 278 286 252 222 241 255 297 345 78 169 168 94 125 134 136 122 126 130 139 143 141
254 267 271 254 244 237 199 147 71 64 187 230 250 260 266 268 230 206 157 118 82 336 21 318 118 6 330 344 14 281 304 32 351 325 184 276 355 241 287 65 320 190 281 93 40 189 179 224 167 161 236 202 147 227 245 314 110 229 227 246 259 261 300 297 282 248 250 260 281 282 268 268 262 241 226 209 185 166 152 165 163 138 141 163 159 154 143
242 244 244 232 186 171 133 105 132 131 344 224 235 239 244 287 225 159 125 132 131 153 134 252 104 202 156 310 295 282 351 21 275 320 250 284 330 306 58 124 26 253 178 153 216 298 212 228 118 252 155 168 227 206 234 179 231 221 216 226 235 220 237 247 271 283 275 272 278 280 280 245 224 231 222 213 183 168 164 149 167 157 149 156 166 150 122
223 229 231 195 165 137 138 163 198 193 211 201 226 276 300 101 78 99 53 359 313 121 167 166 9 238 182 233 267 279 26 344 332 352 326 11 278 300 30 41 215 261 38 355 5 206 256 357 181 243 203 215 236 155 216 240 239 248 248 242 241 240 248 254 256 261 277 283 281 278 266 252 246 236 208 199 190 174 158 169 174 164 162 164 161 160 173
212 190 170 170 135 129 194 242 211 234 218 220 263 10 2 34 47 355 22 32 262 137 338 80 257 252 295 105 258 257 18 279 51 14 309 250 1 307 300 124 233 57 308 266 252 193 132 146 214 226 251 234 233 230 250 248 248 246 252 255 258 253 248 251 255 264 271 282 285 264 259 255 257 239 207 207 191 188 193 173 157 163 153 152 154 149 135
199 183 203 202 116 167 199 244 262 232 137 109 68 66 347 348 64 353 258 235 159 198 243 148 244 163 149 199 266 297 181 266 342 12 20 280 72 311 15 46 295 56 306 18 291 35 260 307 299 260 266 185 165 249 236 252 263 266 261 262 260 260 259 257 248 241 246 244 246 233 209 213 214 223 223 225 219 204 141 152 154 149 147 140 138 139 138
190 190 193 140 188 199 132 332 336 167 67 66 333 115 129 13 99 248 106 90 295 249 159 246 208 191 189 205 222 308 276 100 358 306 239 305 255 152 268 6 268 84 269 114 250 16 166 267 272 280 269 153 222 254 276 259 255 264 272 275 279 277 273 265 262 252 242 248 246 244 234 228 219 207 195 195 182 170 168 158 140 131 133 139 138 142 163
153 109 183 210 206 147 166 283 8 50 76 59 38 339 144 219 219 197 149 211 231 245 211 205 90 306 231 183 192 237 292 11 218 154 136 267 254 75 38 250 259 86 281 246 280 45 17 254 264 232 248 212 239 288 327 332 320 307 302 296 290 283 279 276 268 261 251 248 249 247 238 231 235 238 209 186 178 162 146 138 139 141 130 135 155 173 160
191 151 218 99 109 96 88 45 109 77 3 341 125 200 190 235 53 41 153 165 235 215 263 166 254 217 232 183 198 180 271 203 164 154 250 319 307 9 268 314 14 110 265 242 308 332 26 257 254 263 259 274 297 325 341 315 308 311 307 311 310 307 300 284 272 265 242 232 234 234 228 205 172 125 111 100 97 98 101 108 110 124 159 150 131 135 137
58 54 29 44 17 25 97 54 293 128 138 79 54 144 185 219 211 180 233 224 273 150 259 212 242 175 202 121 320 198 181 152 109 313 85 240 313 41 62 350 48 300 247 342 54 344 256 243 259 246 266 305 297 298 289 283 287 294 293 297 303 312 308 291 276 270 258 231 229 221 183 157 145 137 137 138 127 117 106 115 160 165 165 153 143 133 127
102 68 87 314 74 345 92 192 184 161 207 154 139 182 160 249 302 278 255 260 231 253 219 154 242 145 252 280 149 251 12 357 59 82 351 184 71 354 31 246 225 244 26 355 258 216 233 235 241 253 254 267 292 295 279 285 289 303 306 303 315 332 342 337 340 352 346 313 210 153 146 147 144 150 150 146 147 149 157 167 171 157 142 132 127 130 141
91 57 37 28 60 268 90 283 170 239 174 200 171 188 165 193 220 175 202 244 121 227 227 150 111 153 235 123 57 26 109 210 323 98 258 76 18 260 191 254 249 17 317 266 282 290 318 265 299 311 293 287 275 276 277 274 278 275 287 303 337 347 353 357 348 0 23 57 47 339 183 164 161 169 168 164 162 153 153 158 154 138 133 131 127 132 152
109 151 148 128 128 294 189 118 115 235 263 174 202 191 182 223 172 212 250 174 175 26 137 187 154 148 288 320 137 227 349 86 31 254 211 88 98 256 247 308 61 30 288 241 245 239 237 255 288 271 272 280 288 284 283 283 287 289 316 335 330 354 3 1 353 20 34 34 48 51 8 323 156 124 102 86 80 82 98 109 117 125 121 119 139 144 140
64 258 199 129 103 214 200 204 208 209 176 194 198 179 203 205 197 199 238 194 227 210 127 57 146 178 164 235 47 344 94 120 187 261 69 184 211 259 311 89 255 206 226 242 238 253 265 260 254 265 282 291 289 285 289 306 312 319 328 318 320 5 11 9 3 28 37 62 61 52 39 8 349 64 89 80 60 59 66 72 73 82 106 129 131 127 131
155 222 134 114 186 165 185 231 217 319 280 201 224 203 216 178 218 269 264 240 230 118 140 108 52 352 352 316 90 210 226 175 257 274 185 217 218 247 274 229 237 232 203 217 244 238 254 263 267 277 279 276 269 275 288 303 313 319 326 343 326 334 23 29 9 17 26 48 60 65 62 35 350 1 41 85 79 61 64 90 101 104 113 126 132 137 133
153 155 151 198 184 172 226 227 108 264 284 331 293 143 149 152 219 244 251 56 110 118 139 106 161 94 272 253 212 226 249 189 213 252 175 214 233 236 210 249 246 255 231 220 263 276 271 282 279 279 277 268 253 244 247 250 275 311 333 335 324 323 17 36 18 15 39 56 64 70 75 75 18 334 4 76 91 109 126 125 123 134 144 147 146 142 135
99 336 54 88 21 305 269 49 79 288 306 331 67 219 220 202 249 268 204 128 56 74 20 26 23 105 233 76 341 295 252 241 213 224 219 236 224 246 240 257 230 238 272 301 301 299 300 294 289 286 284 289 282 269 231 257 330 334 304 316 316 288 155 117 56 55 37 90 105 114 114 114 136 175 129 98 86 74 82 108 122 130 133 141 138 137 143
7 113 254 215 159 218 152 159 189 216 293 285 246 251 171 193 197 213 200 123 102 65 46 142 207 73 3 41 190 250 236 198 233 217 212 226 193 228 233 249 261 275 288 290 279 278 280 285 287 290 292 284 280 292 321 34 224 222 261 353 350 37 51 74 96 89 70 56 66 97 96 101 92 60 71 98 111 117 95 83 83 99 121 122 135 144 148
64 26 281 270 229 210 189 156 178 206 216 213 212 245 153 246 232 241 144 107 110 120 214 204 134 138 158 222 220 231 307 213 242 229 235 221 216 241 240 246 275 275 275 277 271 270 274 278 289 306 296 296 311 323 314 312 19 345 345 47 86 60 57 84 97 101 99 88 71 112 122 121 111 104 116 119 114 115 116 120 103 112 109 112 108 114 131